Wetbulb
59.35 60.14 61.14 61.94 65.63 68.29 67.01 66.95 66.52 65.82 65.60 64.72 63.63 62.88 61.65 61.70 60.94 59.50 58.32 58.09 58.92 57.36 56.52 56.20 57.02 54.79 54.69 54.60 53.45 54.81 54.69 54.01
59.50 61.17 62.22 63.58 64.50 65.07 65.33 65.45 65.68 65.05 63.38 61.16 59.36 58.67 60.13 60.55 61.47 61.26 60.07 59.34 58.79 57.11 56.32 56.01 56.27 54.20 53.96 54.30 54.41 53.65 54.10 53.68
58.48 60.89 62.61 63.20 63.61 64.03 66.44 65.85 65.25 64.63 62.69 60.94 59.92 58.57 58.57 58.32 58.37 58.54 59.14 58.70 58.10 56.97 56.40 55.84 55.50 54.53 54.10 54.00 53.55 53.20 54.04 54.27
57.23 59.11 61.11 61.98 61.72 62.29 62.67 63.26 63.84 63.79 60.49 58.71 55.74 54.87 54.41 54.50 55.46 55.70 55.64 56.65 56.70 56.21 56.23 55.59 55.04 54.14 53.28 53.88 53.14 53.15 52.10 52.17
56.73 57.68 58.68 59.36 59.73 61.25 61.51 61.21 61.58 61.49 58.86 57.08 55.42 54.03 52.90 51.88 49.44 50.33 49.39 49.23 47.67 48.70 49.28 48.82 48.27 52.03 52.39 53.08 53.24 51.86 52.84 49.75
55.36 55.94 57.26 57.83 58.93 59.09 59.03 58.92 58.94 58.63 57.57 56.34 54.91 53.05 50.51 47.86 47.01 46.21 46.87 46.80 46.76 47.19 46.97 47.10 46.71 47.05 48.21 48.67 49.87 50.48 51.69 50.43
54.51 55.05 56.58 55.60 56.80 57.52 58.19 57.59 56.70 55.82 54.43 54.19 53.05 51.41 47.55 45.72 45.29 44.87 44.67 45.25 45.25 45.47 46.24 45.88 46.02 46.36 46.60 47.71 48.39 49.20 49.57 49.43
55.02 54.75 54.40 55.34 55.75 55.92 56.27 56.40 56.17 55.21 53.27 52.42 51.52 50.79 48.01 46.94 45.94 44.99 44.30 44.18 43.92 44.31 45.34 44.86 45.35 45.62 46.31 47.24 47.62 47.10 47.66 47.73
54.03 54.34 53.76 53.51 54.20 55.38 55.96 55.35 55.21 56.04 54.73 53.57 52.45 51.38 50.35 48.75 47.74 46.68 46.35 45.29 44.55 45.51 45.78 44.69 44.83 45.29 45.11 45.57 45.62 46.02 46.86 46.50
52.60 53.40 52.77 51.97 52.10 51.91 52.70 55.30 54.93 55.18 56.19 55.56 54.55 52.76 51.41 49.74 49.42 48.85 48.05 47.02 46.35 45.05 44.49 43.74 43.91 43.75 44.00 43.82 43.05 43.00 43.61 44.27
50.49 50.13 50.71 50.84 51.38 52.52 53.24 55.15 55.40 55.25 55.32 55.90 55.14 54.00 52.80 51.77 50.22 48.88 47.55 45.27 44.92 44.17 43.35 42.87 42.63 42.29 42.37 42.23 41.86 42.59 41.77 42.63
48.70 49.45 50.42 50.93 51.29 52.11 52.30 52.85 53.34 54.53 54.46 56.11 54.66 53.42 52.38 50.68 49.61 47.94 45.90 44.65 43.79 43.52 42.78 42.36 41.86 41.48 41.58 41.12 40.98 41.17 40.73 41.69
48.89 49.39 49.22 49.47 50.84 51.98 51.83 52.77 52.99 54.14 55.58 54.38 54.08 54.10 52.01 50.94 50.05 48.64 46.96 45.12 44.01 43.58 43.14 42.57 42.30 41.61 41.32 40.12 39.05 40.12 39.57 39.57
47.94 48.44 48.14 48.36 49.30 51.53 51.23 52.02 51.97 53.08 52.29 52.22 53.50 53.02 52.08 50.86 50.29 49.55 46.38 44.68 43.48 43.82 43.38 42.62 42.22 41.35 40.48 40.33 39.90 39.59 39.73 40.19
47.06 47.07 47.49 48.52 50.86 50.88 50.82 51.39 52.16 52.28 51.92 51.52 51.29 52.58 52.39 52.01 51.59 49.17 45.99 44.12 42.66 42.70 42.38 42.15 41.11 40.91 40.53 40.13 39.86 39.27 39.59 39.97
46.16 46.66 48.29 48.44 49.94 50.29 50.43 51.30 52.17 51.64 51.11 51.29 50.86 51.82 52.34 51.74 51.07 49.25 45.32 43.11 42.52 41.99 41.25 40.50 40.13 39.87 39.89 39.47 39.24 38.25 37.61 37.88
46.29 47.26 48.12 48.51 48.98 48.86 49.55 49.83 49.69 50.44 49.22 49.41 50.99 50.67 49.90 50.85 49.89 48.26 46.97 42.94 42.26 41.60 40.49 39.72 38.87 39.26 38.10 38.12 38.46 37.51 37.41 36.58
45.79 46.48 46.96 48.16 48.43 48.34 47.86 48.34 50.31 50.04 50.16 49.62 49.52 50.29 49.35 49.53 50.33 48.86 47.04 44.75 42.12 40.15 39.78 39.51 37.99 36.09 37.45 38.31 37.63 37.54 37.04 36.72
44.38 45.57 46.61 47.92 48.99 49.00 49.07 49.54 48.93 48.89 49.11 49.91 49.71 50.13 49.05 48.73 48.82 48.04 47.17 45.52 42.95 40.69 39.24 39.45 38.60 36.53 37.20 37.26 36.68 36.93 36.15 35.82
MSLP
1003.72 1004.36 1004.85 1004.84 1004.78 1005.19 1006.51 1007.86 1008.74 1009.78 1010.31 1010.93 1011.49 1011.80 1012.20 1012.50 1012.84 1013.04 1013.48 1013.67 1013.87 1014.22 1014.34 1014.49 1014.56 1014.69 1014.89 1015.15 1015.52 1015.88 1016.20 1016.80
1004.09 1004.97 1005.46 1005.63 1005.70 1005.92 1007.14 1008.13 1008.74 1009.42 1010.33 1011.05 1011.64 1011.87 1011.97 1012.15 1012.07 1012.09 1012.31 1012.77 1013.22 1013.68 1014.03 1014.13 1014.05 1014.25 1014.61 1014.88 1015.16 1015.65 1016.04 1016.50
1004.85 1005.63 1006.31 1006.43 1006.69 1006.99 1007.42 1008.23 1009.02 1009.61 1010.04 1010.56 1011.00 1011.46 1011.79 1011.97 1012.06 1011.96 1012.16 1012.27 1012.62 1013.09 1013.61 1013.54 1013.62 1013.99 1014.35 1014.40 1014.67 1015.12 1015.63 1016.04
1005.51 1006.63 1007.35 1007.56 1007.89 1008.15 1008.37 1008.85 1009.28 1009.88 1010.52 1010.90 1011.33 1011.65 1011.91 1012.14 1012.18 1012.23 1012.08 1012.13 1012.44 1012.62 1012.95 1013.52 1013.46 1013.69 1014.04 1014.06 1014.18 1014.47 1014.92 1015.36
1006.03 1006.93 1007.53 1008.11 1008.71 1008.92 1009.31 1009.80 1009.99 1010.46 1011.00 1011.32 1011.61 1011.78 1012.09 1012.41 1012.78 1012.82 1012.90 1013.13 1013.39 1013.36 1013.83 1013.59 1014.00 1013.73 1013.90 1013.93 1014.20 1013.83 1014.19 1015.04
1006.87 1007.59 1007.92 1008.57 1009.12 1009.70 1009.94 1010.19 1010.27 1010.69 1011.07 1011.27 1011.63 1011.88 1012.14 1012.57 1012.97 1013.22 1013.26 1013.40 1013.71 1014.14 1014.03 1014.64 1014.84 1014.88 1014.79 1014.60 1014.67 1014.73 1013.59 1014.79
1007.21 1008.02 1008.28 1008.60 1009.06 1009.50 1009.86 1010.18 1010.60 1011.13 1011.73 1011.90 1012.00 1012.23 1012.66 1012.97 1013.33 1013.59 1013.82 1014.01 1014.28 1014.63 1014.94 1015.17 1015.19 1015.14 1015.24 1015.32 1015.85 1014.95 1014.54 1015.34
1006.91 1007.45 1007.82 1008.37 1008.81 1009.14 1009.28 1009.64 1009.98 1010.59 1011.45 1012.10 1012.38 1012.52 1012.80 1013.12 1013.44 1013.68 1014.05 1014.40 1014.81 1015.12 1015.26 1015.45 1015.61 1015.46 1015.62 1015.56 1015.70 1015.79 1015.97 1016.28
1006.71 1006.97 1007.35 1007.63 1007.92 1008.15 1008.52 1008.83 1009.11 1009.56 1010.06 1010.74 1011.40 1012.00 1012.34 1012.68 1013.13 1013.58 1013.69 1013.96 1014.34 1014.74 1015.02 1015.45 1015.83 1015.88 1015.66 1015.79 1015.93 1016.18 1016.20 1016.16
1006.40 1006.76 1007.19 1007.61 1007.84 1008.01 1008.11 1008.39 1008.41 1008.71 1008.98 1009.50 1010.06 1010.72 1011.56 1012.08 1012.67 1013.22 1013.45 1013.71 1014.02 1014.34 1014.70 1015.23 1015.63 1015.85 1015.92 1015.90 1016.36 1016.64 1016.59 1016.32
1006.47 1006.79 1007.00 1007.22 1007.35 1007.46 1007.56 1007.73 1007.91 1008.02 1008.25 1008.36 1008.84 1009.52 1010.50 1011.19 1011.87 1012.54 1012.94 1013.18 1013.47 1013.88 1014.47 1014.95 1015.37 1015.84 1016.14 1016.06 1016.50 1016.76 1017.02 1016.83
1006.36 1006.72 1006.99 1007.02 1007.10 1007.26 1007.44 1007.30 1007.37 1007.29 1007.21 1007.33 1007.99 1008.86 1009.71 1010.35 1010.88 1011.18 1010.95 1012.09 1012.67 1013.64 1014.08 1014.56 1015.20 1015.85 1016.29 1016.35 1016.55 1016.75 1017.01 1017.30
1006.28 1006.46 1006.59 1006.77 1006.75 1006.82 1007.08 1007.30 1007.33 1007.16 1006.85 1006.94 1007.76 1008.08 1009.37 1009.57 1009.74 1010.35 1011.04 1011.62 1012.54 1012.59 1013.56 1013.89 1014.56 1015.25 1015.89 1016.27 1016.75 1016.93 1017.17 1017.49
1006.25 1006.39 1006.49 1006.32 1006.34 1006.35 1006.65 1007.06 1007.39 1007.20 1007.07 1006.90 1006.94 1007.49 1008.81 1009.11 1009.64 1010.24 1010.79 1011.19 1011.80 1012.02 1012.71 1013.19 1013.95 1014.57 1015.36 1015.85 1016.19 1016.52 1016.72 1017.13
1006.09 1006.29 1006.31 1006.03 1005.76 1006.03 1006.40 1006.61 1007.01 1007.08 1007.12 1006.99 1006.90 1006.99 1007.54 1008.09 1008.58 1009.50 1010.29 1011.37 1011.28 1012.05 1012.28 1012.71 1013.07 1013.73 1014.38 1015.10 1015.51 1015.78 1015.93 1016.21
1006.06 1006.15 1006.45 1006.15 1005.75 1005.72 1006.00 1006.19 1006.43 1006.56 1006.59 1006.52 1006.49 1006.50 1006.60 1007.31 1007.82 1008.68 1009.66 1010.67 1011.14 1011.82 1012.44 1012.79 1013.01 1013.32 1013.62 1014.08 1014.49 1015.15 1015.58 1015.90
1006.26 1006.57 1006.69 1006.69 1006.89 1006.42 1006.12 1005.81 1005.96 1006.00 1005.86 1005.81 1005.83 1005.93 1006.11 1006.64 1007.22 1007.97 1009.01 1009.80 1010.24 1011.15 1011.83 1012.45 1012.80 1013.13 1013.47 1014.06 1014.41 1015.12 1015.38 1016.15
1007.14 1007.07 1006.88 1006.70 1006.80 1006.81 1007.04 1005.87 1005.74 1005.69 1005.39 1005.08 1004.99 1005.09 1005.50 1005.90 1006.63 1007.47 1008.20 1008.95 1009.70 1010.43 1010.95 1011.54 1012.33 1012.93 1013.28 1014.16 1014.77 1015.23 1015.66 1016.56
1007.82 1007.69 1007.32 1006.94 1006.74 1006.64 1006.45 1005.73 1005.67 1005.47 1005.14 1004.83 1004.48 1004.67 1005.28 1005.90 1006.60 1007.26 1007.82 1008.44 1008.93 1009.58 1010.37 1010.91 1011.68 1012.57 1013.14 1013.89 1014.66 1015.30 1015.82 1016.58
Wind_Speed
10 12 11 11 4 3 15 10 11 10 7 4 3 3 3 5 8 8 11 9 11 7 7 9 8 5 4 4 6 5 6 8
11 6 7 5 7 7 16 12 9 7 6 3 3 3 4 4 5 10 13 12 13 10 8 8 7 6 6 6 5 6 5 7
8 8 6 7 8 8 9 7 6 4 5 3 3 3 3 3 3 5 6 10 10 10 9 6 8 6 6 7 7 5 5 9
8 9 7 9 9 10 8 5 5 2 4 3 3 3 2 1 3 2 1 4 3 7 8 5 6 7 6 8 8 8 6 7
8 6 7 8 6 6 7 5 4 4 2 1 2 3 5 1 2 3 4 8 7 8 8 6 6 1 4 6 6 4 5 10
6 6 6 7 6 5 4 2 0 3 4 4 4 5 2 2 2 4 3 4 5 5 6 4 4 3 4 9 5 4 4 8
6 4 2 5 5 3 2 2 3 1 2 6 5 5 4 3 2 2 2 2 2 1 0 0 2 2 3 4 4 6 6 5
8 7 2 3 3 4 4 5 5 7 5 5 5 6 6 6 5 4 5 3 2 3 3 1 1 2 1 2 3 4 4 0
2 3 5 5 5 5 7 7 6 6 11 10 10 8 5 6 7 6 5 6 6 6 5 5 4 3 4 1 3 2 3 2
4 3 4 6 6 5 4 7 7 6 7 10 9 10 11 8 8 7 6 8 7 8 8 8 6 5 3 5 3 2 3 3
6 7 6 4 5 5 5 6 6 7 10 9 8 10 10 6 6 6 5 6 8 10 9 9 7 6 5 6 5 4 2 3
6 5 6 5 5 6 6 7 7 9 10 8 8 4 9 10 9 9 12 10 12 11 11 10 10 8 6 5 5 7 7 5
7 5 6 6 6 3 4 6 8 9 7 1 9 9 10 12 12 10 10 11 10 12 11 11 10 10 9 9 8 7 8 9
9 8 7 8 7 1 4 3 8 6 7 8 4 9 10 9 7 9 9 11 13 13 12 12 12 12 11 11 11 11 11 9
8 7 9 8 5 1 4 3 5 5 6 7 6 4 7 8 9 11 11 9 11 11 12 12 12 12 14 14 14 13 13 10
11 11 12 13 3 3 4 5 6 5 7 7 7 6 6 6 5 9 12 12 10 11 10 10 10 10 9 10 9 7 7 6
12 11 10 11 12 10 7 4 5 6 6 6 6 5 6 8 8 11 11 13 14 13 13 12 12 10 13 12 10 8 7 7
15 15 13 12 7 6 12 7 5 7 8 8 8 7 6 7 8 9 11 13 14 14 14 14 12 6 16 15 13 9 11 10
13 12 13 12 11 8 12 7 6 7 8 9 7 0 5 5 5 8 9 9 13 13 13 13 12 8 19 19 14 9 8 8
Wind_Direction
61 34 4 341 330 90 144 153 155 177 173 148 173 184 190 194 199 192 195 198 198 199 216 208 216 183 181 201 172 202 168 160
79 58 46 340 36 23 140 149 171 149 156 146 147 216 187 219 216 201 196 195 193 191 214 218 205 184 191 193 178 182 170 158
97 82 74 52 38 20 103 107 126 166 159 169 155 155 213 205 252 238 215 193 189 195 212 224 188 184 211 191 186 177 176 173
113 82 56 58 41 24 35 48 101 109 100 104 82 61 41 337 253 275 227 152 214 195 196 241 193 191 214 197 191 190 179 169
85 98 79 82 62 45 56 48 19 116 92 204 232 207 214 145 25 12 45 36 47 58 27 53 26 299 273 208 203 176 170 175
109 79 66 75 63 78 71 48 323 153 209 230 229 214 166 128 140 128 98 84 77 41 78 42 46 22 20 21 10 266 120 180
134 103 52 95 78 38 4 228 251 214 274 261 245 230 192 166 160 151 106 64 70 98 154 86 144 110 38 37 341 54 58 14
167 162 124 92 221 238 220 226 245 177 192 252 255 239 206 212 192 183 161 158 173 189 163 151 156 86 15 94 77 41 50 38
206 188 202 229 247 237 208 224 234 227 179 197 199 216 215 208 210 210 205 197 190 174 162 158 168 181 159 154 72 103 45 32
212 254 310 352 337 316 319 249 232 260 243 193 198 185 198 200 211 202 197 201 187 168 156 155 144 135 132 116 86 38 25 56
335 347 334 328 325 318 314 294 239 236 255 194 202 192 199 174 166 178 206 161 156 157 154 150 144 136 144 131 150 132 107 356
333 330 316 320 314 302 302 274 298 248 242 219 196 158 175 167 182 191 170 167 163 172 167 156 153 153 168 149 157 164 179 180
319 312 313 309 283 286 305 318 303 303 284 13 230 142 182 184 196 190 176 176 185 166 173 165 161 170 176 179 184 191 188 195
319 309 295 291 278 198 304 318 303 326 329 322 266 185 200 204 217 192 183 177 181 165 171 171 172 170 177 181 186 191 190 199
305 323 307 293 274 143 269 268 267 283 293 295 298 277 213 201 212 188 173 184 170 185 182 177 178 178 178 185 190 192 188 169
317 323 345 324 262 199 218 250 245 268 262 248 254 255 204 223 234 165 166 170 177 181 182 180 170 183 185 178 167 166 143 128
334 347 338 340 329 309 296 303 293 274 263 263 263 258 228 197 171 173 181 178 178 179 187 188 185 191 181 168 149 142 114 102
341 334 334 330 275 253 289 288 302 287 281 262 250 242 209 198 175 181 184 187 178 184 186 182 183 169 166 160 153 154 154 163
327 314 308 302 312 311 275 271 290 286 308 321 280 80 35 69 169 196 197 188 184 180 184 184 172 162 149 150 147 148 136 141